AGGH

Honiara International Airport

Honiara, Solomon Islands
Issued Wind Visibility Ceiling Temperature Dew Point Humidity Barometer
Dec-11
22:00 UTC
10,000+ meters Broken
10,000'AGL
29° C
84° F
25° C
77° F
79% 29.76" Hg
1008 hPa
VFR
Dec-11
21:00 UTC
230°
3 KTS
10,000+ meters Broken
10,000'AGL
28° C
82° F
24° C
75° F
79% 29.76" Hg
1008 hPa
VFR
Dec-11
20:00 UTC
180°
3 KTS
10,000+ meters   26° C
79° F
24° C
75° F
89% 29.73" Hg
1007 hPa
VFR
Dec-11
19:00 UTC
180°
2 KTS
10,000+ meters Overcast
10,000'AGL
24° C
75° F
23° C
73° F
94% 29.73" Hg
1007 hPa
VFR
Dec-11
18:00 UTC
10,000+ meters Overcast
10,000'AGL
24° C
75° F
24° C
75° F
100% 29.7" Hg
1006 hPa
VFR
Dec-11
17:00 UTC
240°
4 KTS
10,000+ meters Overcast
10,000'AGL
24° C
75° F
24° C
75° F
100% 29.68" Hg
1005 hPa
VFR
Dec-11
16:00 UTC
180°
4 KTS
10,000+ meters Overcast
10,000'AGL
24° C
75° F
24° C
75° F
100% 29.68" Hg
1005 hPa
VFR
Dec-11
15:00 UTC
10,000+ meters Overcast
10,000'AGL
25° C
77° F
24° C
75° F
94% 29.7" Hg
1006 hPa
VFR
Dec-11
14:00 UTC
240°
3 KTS
10,000+ meters Overcast
10,000'AGL
25° C
77° F
24° C
75° F
94% 29.7" Hg
1006 hPa
VFR
Dec-11
13:00 UTC
10,000+ meters Overcast
10,000'AGL
25° C
77° F
25° C
77° F
100% 29.76" Hg
1008 hPa
VFR
Dec-11
12:00 UTC
200°
2 KTS
10,000+ meters Overcast
10,000'AGL
25° C
77° F
25° C
77° F
100% 29.79" Hg
1009 hPa
VFR
Dec-11
11:00 UTC
10,000+ meters Overcast
10,000'AGL
25° C
77° F
25° C
77° F
100% 29.76" Hg
1008 hPa
VFR
Dec-11
10:00 UTC
160°
3 KTS
10,000+ meters Overcast
10,000'AGL
26° C
79° F
26° C
79° F
100% 29.76" Hg
1008 hPa
VFR
Dec-11
09:00 UTC
180°
3 KTS
10,000+ meters Overcast
10,000'AGL
26° C
79° F
26° C
79° F
100% 29.76" Hg
1008 hPa
VFR
Dec-11
08:40 UTC
230°
3 KTS
10,000+ meters Overcast
10,000'AGL
26° C
79° F
26° C
79° F
100% 29.76" Hg
1008 hPa
VFR
Dec-11
08:00 UTC
10,000+ meters Overcast
10,000'AGL
26° C
79° F
26° C
79° F
100% 29.73" Hg
1007 hPa
VFR
Dec-11
07:30 UTC
10,000+ meters Overcast
10,000'AGL
27° C
81° F
26° C
79° F
94% 29.73" Hg
1007 hPa
VFR
Dec-11
07:01 UTC
10,000+ meters Overcast
30,000'AGL
27° C
81° F
26° C
79° F
94% 29.7" Hg
1006 hPa
VFR
Dec-11
06:00 UTC
290°
2 KTS
10,000+ meters Broken
30,000'AGL
28° C
82° F
25° C
77° F
84% 29.68" Hg
1005 hPa
VFR
Dec-11
05:00 UTC
290°
2 KTS
10,000+ meters Overcast
10,000'AGL
28° C
82° F
26° C
79° F
89% 29.68" Hg
1005 hPa
VFR
Dec-11
04:00 UTC
290°
4 KTS
10,000+ meters Overcast
10,000'AGL
27° C
81° F
25° C
77° F
89% 29.68" Hg
1005 hPa
VFR
Dec-11
03:00 UTC
320°
4 KTS
10,000+ meters Broken
3,500'AGL
27° C
81° F
25° C
77° F
89% 29.7" Hg
1006 hPa
VFR
Dec-11
02:00 UTC
320°
4 KTS
10,000+ meters Overcast
10,000'AGL
26° C
79° F
25° C
77° F
94% 29.73" Hg
1007 hPa
VFR
Dec-11
01:00 UTC
200°
2 KTS
10,000+ meters Overcast
10,000'AGL
26° C
79° F
25° C
77° F
94% 29.73" Hg
1007 hPa
VFR
Dec-11
00:00 UTC
270°
4 KTS
10,000+ meters   26° C
79° F
26° C
79° F
100% 29.76" Hg
1008 hPa
VFR
Dec-10
23:00 UTC
290°
6 KTS
10,000+ meters Broken
3,500'AGL
26° C
79° F
25° C
77° F
94% 29.79" Hg
1009 hPa
VFR